Weather History for Keahole Point, HI

Change the Weather History Date:

Friday, October 26, 2012

  Actual Average Record
Temperature  
Mean Temperature 80 °F -  
Max Temperature 86 °F 83 °F 91 °F (1982)
Min Temperature 75 °F 72 °F 70 °F (1983)
Cooling Degree Days 16    
Growing Degree Days 30 (Base 50)    
Moisture  
Dew Point 68 °F    
Average Humidity 65    
Maximum Humidity 72    
Minimum Humidity 57    
Precipitation  
Precipitation 0.00 in - - ()
Sea Level Pressure  
Sea Level Pressure 30.00 in    
Wind  
Wind Speed 6 mph (North)    
Max Wind Speed 12 mph    
Max Gust Speed -    
Visibility 10 miles    
Events      
Averages and records for this station are not official NWS values.
T = Trace of Precipitation, MM = Missing Value Source: NWS Daily Summary

Daily Weather History Graph

Daily Weather History Graph

Search for Another Location

Airport:

Trip Planner

Search our weather history database for the weather conditions in past years. The results will help you decide how hot, cold, wet, or windy it might be!

Date:

Astronomy

Oct. 26, 2012 Rise Set
Actual Time 6:23 AM HST 5:52 PM HST
Civil Twilight 6:00 AM HST 6:15 PM HST
Nautical Twilight 5:34 AM HST 6:41 PM HST
Astronomical Twilight 5:08 AM HST 7:06 PM HST
Moon 3:59 PM HST (10/26) 3:48 AM HST (10/26)
Length of Visible Light 12h 14m
Length of Day
11h 29m
Waxing Gibbous, 92% of the Moon is Illuminated
Oct 26
Waxing Gibbous
Oct 29
Full
Nov 6
Last Quarter
Nov 13
New
Nov 20
First Quarter

Hourly Weather History & Observations

Time (HST) Temp. Heat Index Dew Point Humidity Pressure Visibility Wind Dir Wind Speed Gust Speed Precip Events Conditions
12:53 AM 79.0 °F - 69.1 °F 72% 29.97 in 10.0 mi Calm Calm - N/A   Clear
1:53 AM 78.1 °F - 68.0 °F 71% 29.96 in 10.0 mi SE 5.8 mph - N/A   Partly Cloudy
2:36 AM 78.8 °F - 68.0 °F 69% 29.95 in 10.0 mi ESE 6.9 mph - N/A   Mostly Cloudy
2:53 AM 78.1 °F - 68.0 °F 71% 29.96 in 10.0 mi SE 8.1 mph - N/A   Scattered Clouds
3:53 AM 78.1 °F - 68.0 °F 71% 29.96 in 10.0 mi SE 8.1 mph - N/A   Mostly Cloudy
4:30 AM 78.8 °F - 68.0 °F 69% 29.97 in 10.0 mi SE 6.9 mph - N/A   Mostly Cloudy
4:53 AM 78.1 °F - 66.9 °F 68% 29.98 in 10.0 mi SE 8.1 mph - N/A   Mostly Cloudy
5:53 AM 77.0 °F - 64.9 °F 66% 30.00 in 10.0 mi ESE 5.8 mph - N/A   Clear
6:53 AM 75.9 °F - 64.9 °F 69% 30.01 in 10.0 mi NE 3.5 mph - N/A   Clear
7:53 AM 82.0 °F 85.5 °F 69.1 °F 65% 30.03 in 10.0 mi Variable 3.5 mph - N/A   Mostly Cloudy
8:53 AM 82.0 °F 85.9 °F 70.0 °F 67% 30.04 in 10.0 mi NW 6.9 mph - N/A   Scattered Clouds
9:53 AM 84.9 °F 88.2 °F 68.0 °F 57% 30.05 in 10.0 mi WNW 8.1 mph - N/A   Clear
10:53 AM 84.9 °F 88.2 °F 68.0 °F 57% 30.04 in 10.0 mi West 10.4 mph - N/A   Clear
11:53 AM 84.9 °F 88.8 °F 69.1 °F 59% 30.02 in 10.0 mi WNW 10.4 mph - N/A   Clear
12:53 PM 86.0 °F 90.7 °F 70.0 °F 59% 29.99 in 10.0 mi WNW 9.2 mph - N/A   Clear
1:53 PM 84.9 °F 89.4 °F 70.0 °F 61% 29.98 in 10.0 mi West 8.1 mph - N/A   Clear
2:53 PM 84.9 °F 89.4 °F 70.0 °F 61% 29.98 in 10.0 mi West 10.4 mph - N/A   Clear
3:53 PM 84.0 °F 88.4 °F 70.0 °F 63% 29.97 in 10.0 mi NW 11.5 mph - N/A   Clear
4:53 PM 84.0 °F 87.0 °F 68.0 °F 58% 29.98 in 10.0 mi NNW 11.5 mph - N/A   Mostly Cloudy
5:53 PM 82.0 °F 84.9 °F 68.0 °F 62% 29.99 in 10.0 mi NNW 11.5 mph - N/A   Scattered Clouds
6:53 PM 81.0 °F 83.3 °F 66.9 °F 62% 30.01 in 10.0 mi NNW 10.4 mph - N/A   Mostly Cloudy
7:53 PM 81.0 °F 83.8 °F 68.0 °F 65% 30.03 in 10.0 mi NNW 5.8 mph - N/A   Overcast
8:53 PM 80.1 °F 82.3 °F 66.9 °F 64% 30.04 in 10.0 mi NE 4.6 mph - N/A   Clear
9:53 PM 80.1 °F 82.1 °F 66.0 °F 62% 30.04 in 10.0 mi SE 4.6 mph - N/A   Clear
10:53 PM 79.0 °F - 66.0 °F 64% 30.05 in 10.0 mi SE 10.4 mph - N/A   Clear
11:53 PM 78.1 °F - 66.0 °F 66% 30.05 in 10.0 mi SE 6.9 mph - N/A   Mostly Cloudy